Погода в Колонья Сант-Жорди

Испания     39˚19′01″N   2˚59′37″E
темп.,
°C
ветер,
м/с
пор.,
м/с
влажн.,
%
обл.,
%
осадки,
мм/ч
давл.,
гПа
погр.,
м
17 января, вс
вс1701:00+12˚з89740 0.0 1027771
04:00+13˚з911720 0.0 1025744
07:00+13˚зюз1012740 0.0 1024724
10:00+14˚з1113700 0.0 1025817
13:00+15˚з1113630 0.0 10241102
16:00+15˚зсз1115630 0.0 10221073
19:00+14˚зсз814690 0.0 1023837
22:00+12˚всв67780 0.0 1024329
18 января, пн
пн1801:00+13˚св8106036 0.0 1026866
04:00+11˚св7105783 0.0 1025522
07:00+11˚св685972 0.0 1026455
10:00+13˚в566151 0.0 1027632
13:00+13˚юв445740 0.0 1028825
16:00+13˚ю445794 0.0 1027894
19:00+13˚ю446197 0.0 1027682
22:00+13˚ю456872 0.0 1027670
19 января, вт
вт1901:00+13˚ююз347036 0.1 1027725
04:00+12˚юз34730 0.0 1025647
07:00+13˚ю34780 0.0 1025465
10:00+14˚ю56810 0.0 1025582
13:00+14˚ююз56770 0.0 1024633
16:00+14˚ююз567614 0.0 1022601
19:00+14˚ю57798 0.0 1022431
22:00+14˚ююз68780 0.0 1021414
20 января, ср
ср2001:00+14˚ююз687812 0.0 1019362
04:00+14˚ююз587496 0.0 1018364
07:00+14˚юз697063 0.0 1016433
10:00+15˚юз71070100 0.0 1016665
13:00+15˚юз81272100 0.0 1014737
16:00+15˚юз9137267 0.0 1012904
19:00+15˚юз9137883 0.0 1012990
22:00+15˚зюз9147783 0.1 1012774
21 января, чт
чт2101:00+15˚зюз9137950 0.1 1012438
04:00+15˚з9157125 0.1 1012649
07:00+15˚з11157313 0.1 1013724
10:00+15˚з1115730 0.0 1015808
13:00+15˚з1014720 0.0 1015941
16:00+15˚зюз11157240 0.0 1014780
19:00+15˚зюз11167670 0.0 1014708
22:00+15˚юз11157912 0.0 1013516